Regional Weather Roundup
Issued by NWS

Home | Current Version | Previous Version | Graphics & Text | Print | Product List | Glossary On
Versions: 1 2 3 4 5 6 7 8 9 10 11 12 13 14 15 16 17 18 19 20 21 22 23 24 25 26 27 28 29 30 31 32 33 34 35 36 37 38 39 40 41 42 43 44 45 46 47 48 49 50
000
ASUS43 KOAX 041002
RWRNE

WEATHER ROUNDUP FOR NEBRASKA
NATIONAL WEATHER SERVICE OMAHA NE
500 AM CDT WED MAY 04 2016

NOTES: SATELLITE DATA IS BEING USED TO AUGMENT CLOUD COVER ABOVE
       12000 FEET.
       "FAIR" INDICATES FEW OR NO CLOUDS BELOW 12,000 FEET WITH NO
       SIGNIFICANT WEATHER AND/OR OBSTRUCTIONS TO VISIBILITY.

  * THESE STATIONS DO NOT REPORT WEATHER SUCH AS RAIN...SNOW OR FOG.

NEZ001>004-019>022-054>056-041100-
NEBRASKA PANHANDLE

CITY           SKY/WX    TMP DP  RH WIND       PRES   REMARKS
SCOTTSBLUFF    CLEAR     44  39  82 NW10      30.18S
ALLIANCE       CLEAR     36  35  96 W8        30.15S WCI  30
CHADRON        CLEAR     41  38  89 SW6       30.15R
KIMBALL        CLEAR     38  36  91 NW9       30.22S WCI  32
SIDNEY         CLEAR     39  35  86 NW6       30.18F WCI  35
$$

NEZ057>060-069>072-079>082-041100-
SOUTHWEST NEBRASKA

CITY           SKY/WX    TMP DP  RH WIND       PRES   REMARKS
NORTH PLATTE   CLEAR     42  39  89 NW5       30.11R
IMPERIAL       CLEAR     48  38  68 NW10      30.13S
LEXINGTON      CLEAR     44  40  85 W8        30.07R
MCCOOK         CLEAR     44  39  82 W10       30.08S
$$

NEZ005>010-023>029-035>040-094-041100-
NORTH CENTRAL NEBRASKA

CITY           SKY/WX    TMP DP  RH WIND       PRES   REMARKS
VALENTINE      CLEAR     41  36  82 NW7       30.11R
AINSWORTH      CLEAR     46  39  76 NW5       30.10S
BROKEN BOW     CLEAR     45  40  82 N9        30.07R
ORD            CLEAR     44  41  89 N10       30.05R
$$

NEZ041-046>049-061>064-073>077-083>087-041100-
SOUTH CENTRAL NEBRASKA

CITY           SKY/WX    TMP DP  RH WIND       PRES   REMARKS
GRAND ISLAND   PTCLDY    49  41  74 NW10      30.03R
AURORA         CLEAR     49  41  74 N9        30.01R
HASTINGS       CLEAR     48  41  76 N9        30.01S
KEARNEY *      CLEAR     46  39  76 NW8       30.05R
YORK           CLEAR     46  41  81 NW10      30.00R
$$

NEZ011>018-030>034-042>045-041100-
NORTHEAST NEBRASKA

CITY           SKY/WX    TMP DP  RH WIND       PRES   REMARKS
NORFOLK        CLEAR     48  33  56 NW10      30.00R
ALBION         CLEAR     41  37  85 NW7       30.03R
BLAIR          CLEAR     52  34  50 NW10      29.93S
COLUMBUS *     CLEAR     48  34  57 NW9       30.00S
FREMONT        CLEAR     46  38  75 NW7       29.96S
TEKAMAH        CLEAR     48  35  60 N6        29.95R
$$

NEZ050>053-065>068-078-088>093-041100-
SOUTHEAST NEBRASKA

CITY           SKY/WX    TMP DP  RH WIND       PRES   REMARKS
LINCOLN        CLEAR     52  40  63 NW8       29.97R
OMAHA EPPLEY   CLEAR     49  39  68 N7        29.93R
BEATRICE       CLEAR     47  43  85 NW8       29.96R
FALLS CITY     CLEAR     51  43  74 NW8       29.89R
$$

NEZ044-045-051>053-067-041100-
OMAHA AREA

CITY           SKY/WX    TMP DP  RH WIND       PRES   REMARKS
OMAHA EPPLEY   CLEAR     49  39  68 N7        29.93R
BLAIR          CLEAR     52  34  50 NW10      29.93S
FREMONT        CLEAR     46  38  75 NW7       29.96S
OFFUTT AFB     CLEAR     54  35  48 NW10      29.91R
$$




USA.gov is the U.S. government's official web portal to all federal, state and local government web resources and services.